This is the latest recevied weather packets stored in our database for station/object HS2GJW-1. If no packets are shown the sender has not sent any weather packets the latest 10 day(s).
| Time | Temp. | Humidity | Pressure | Rain* | Wind** | Luminosity | Snow |
|---|---|---|---|---|---|---|---|
| 1788662463 | 33.33° C | 81% | 1011 hPa | - | - | 0 W/m² | - |
| 1788661836 | 33.33° C | 83% | 1011 hPa | - | - | 0 W/m² | - |
| 1788661212 | 33.33° C | 84% | 1011 hPa | - | - | 0 W/m² | - |
| 1788660585 | 33.33° C | 88% | 1011 hPa | - | - | 0 W/m² | - |
| 1788659959 | 32.78° C | 92% | 1011 hPa | - | - | 0 W/m² | - |
| 1788659334 | 32.22° C | 97% | 1011 hPa | - | - | 0 W/m² | - |
| 1788658707 | 32.22° C | 99% | 1011 hPa | - | - | 0 W/m² | - |
| 1788658081 | 31.67° C | 99% | 1011 hPa | - | - | 0 W/m² | - |
| 1788657456 | 31.11° C | 99% | 1011 hPa | - | - | 0 W/m² | - |
| 1788656829 | 31.11° C | 99% | 1010 hPa | - | - | 0 W/m² | - |
| 1788656204 | 30.56° C | 99% | 1010 hPa | - | - | 0 W/m² | - |
| 1788655580 | 30.56° C | 99% | 1010 hPa | - | - | 0 W/m² | - |
| 1788654954 | 30.56° C | 99% | 1010 hPa | - | - | 0 W/m² | - |
| 1788654328 | 30° C | 99% | 1010 hPa | - | - | 0 W/m² | - |
| 1788653703 | 30° C | 99% | 1010 hPa | - | - | 0 W/m² | - |
| 1788653076 | 30° C | 99% | 1009 hPa | - | - | 0 W/m² | - |
| 1788652450 | 29.44° C | 99% | 1010 hPa | - | - | 0 W/m² | - |
| 1788651824 | 29.44° C | 99% | 1010 hPa | - | - | 0 W/m² | - |
| 1788651199 | 29.44° C | 99% | 1009 hPa | - | - | 0 W/m² | - |
| 1788650575 | 28.89° C | 99% | 1009 hPa | - | - | 0 W/m² | - |
| 1788649950 | 28.89° C | 99% | 1009 hPa | - | - | 0 W/m² | - |
| 1788649326 | 28.89° C | 99% | 1009 hPa | - | - | 0 W/m² | - |
| 1788610030 | 33.33° C | 77% | 1007 hPa | - | - | 0 W/m² | - |
| 1788609406 | 33.33° C | 78% | 1007 hPa | - | - | 0 W/m² | - |
| 1788608781 | 33.33° C | 77% | 1007 hPa | - | - | 0 W/m² | - |
* Rain since midnight (hover to see other rain measurements)
** Current wind speed in m/s (hover to see current wind gust speed)